Weather History for Campo, CA

Change the Weather History Date:

Sunday, September 9, 2012

  Actual Average Record
Temperature  
Mean Temperature 76 °F 71 °F  
Max Temperature 89 °F 92 °F 104 °F (1993)
Min Temperature 63 °F 50 °F 33 °F (1961)
Degree Days  
Heating Degree Days 0 1  
Month to date heating degree days 0 7  
Since 1 July heating degree days 9 21  
Cooling Degree Days 11 7  
Month to date cooling degree days 93 67  
Year to date cooling degree days 747 717  
Growing Degree Days 26 (Base 50)    
Moisture  
Dew Point 61 °F    
Average Humidity 56    
Maximum Humidity 73    
Minimum Humidity 39    
Precipitation  
Precipitation 0.00 in 0.02 in 0.10 in (2012)
Month to date precipitation 0.00 0.12  
Year to date precipitation 6.95 11.29  
Since 1 July precipitation 0.90 1.14  
Snow  
Snow 0.00 in - - ()
Month to date snowfall 0.0  
Year to date snowfall 0.0  
Since 1 July snowfall 0.0  
Snow Depth 0.00 in    
Sea Level Pressure  
Sea Level Pressure 29.84 in    
Wind  
Wind Speed 10 mph (ENE)    
Max Wind Speed 23 mph    
Max Gust Speed 30 mph    
T = Trace of Precipitation, MM = Missing Value Source: NWS Daily Summary

Daily Weather History Graph

Daily Weather History Graph

Search for Another Location

Airport:

Trip Planner

Search our weather history database for the weather conditions in past years. The results will help you decide how hot, cold, wet, or windy it might be!

Date:

Astronomy

Sep. 09, 2012 Rise Set
Actual Time 6:26 AM PDT 6:59 PM PDT
Civil Twilight 6:01 AM PDT 7:24 PM PDT
Nautical Twilight 5:32 AM PDT 7:53 PM PDT
Astronomical Twilight 5:02 AM PDT 8:22 PM PDT
Moon 12:13 AM PDT (9/9) 2:33 PM PDT (9/9)
Length of Visible Light 13h 22m
Length of Day
12h 33m
Last Quarter, 38% of the Moon is Illuminated
Sep 9
Last Quarter
Sep 15
New
Sep 22
First Quarter
Sep 29
Full
Oct 8
Last Quarter

Hourly Weather History & Observations

Time (PDT) Temp. Heat Index Dew Point Humidity Pressure Visibility Wind Dir Wind Speed Gust Speed Precip Events Conditions
12:52 AM 66.9 °F - 55.0 °F 66% 29.84 in - Calm Calm - N/A   Unknown
1:52 AM 68.0 °F - 55.0 °F 63% 29.83 in - NE 6.9 mph - N/A   Unknown
2:52 AM 66.9 °F - 55.9 °F 68% 29.82 in - Calm Calm - N/A   Unknown
3:52 AM 64.9 °F - 55.0 °F 70% 29.82 in - ENE 3.5 mph - N/A   Unknown
4:52 AM 66.0 °F - 57.9 °F 75% 29.82 in - NNE 3.5 mph - N/A   Unknown
5:52 AM 70.0 °F - 61.0 °F 73% 29.82 in - NE 4.6 mph - N/A   Unknown
6:52 AM 75.0 °F - 63.0 °F 66% 29.83 in - Calm Calm - N/A   Unknown
7:52 AM 81.0 °F 82.2 °F 63.0 °F 54% 29.83 in - NE 9.2 mph - N/A   Unknown
8:52 AM 80.1 °F 81.5 °F 63.0 °F 56% 29.86 in - ENE 16.1 mph - N/A   Unknown
9:52 AM 80.1 °F 81.5 °F 63.0 °F 56% 29.88 in - ENE 17.3 mph - N/A   Unknown
10:52 AM 82.9 °F 83.7 °F 62.1 °F 49% 29.86 in - ENE 16.1 mph 23.0 mph N/A   Unknown
11:52 AM 86.0 °F 85.7 °F 60.1 °F 41% 29.84 in - NE 20.7 mph 25.3 mph N/A   Unknown
12:52 PM 87.1 °F 86.7 °F 60.1 °F 40% 29.83 in - ENE 19.6 mph 26.5 mph N/A   Unknown
1:52 PM 88.0 °F 87.6 °F 60.1 °F 39% 29.81 in - NE 16.1 mph 24.2 mph N/A   Unknown
2:52 PM 88.0 °F 87.1 °F 59.0 °F 37% 29.78 in - ENE 16.1 mph 25.3 mph N/A   Unknown
3:52 PM 86.0 °F 85.4 °F 59.0 °F 40% 29.79 in - ENE 16.1 mph 20.7 mph N/A   Unknown
4:52 PM 86.0 °F 85.4 °F 59.0 °F 40% 29.79 in - NE 9.2 mph - N/A   Unknown
5:39 PM 78.8 °F - 62.6 °F 57% 29.91 in - SW 15.0 mph 25.3 mph N/A   Unknown
5:52 PM 77.0 °F - 62.1 °F 60% 29.82 in - SW 12.7 mph - N/A   Unknown
6:52 PM 73.9 °F - 63.0 °F 68% 29.83 in - South 5.8 mph - N/A   Unknown
7:52 PM 73.0 °F - 63.0 °F 71% 29.83 in - Calm Calm - N/A   Unknown
8:52 PM 71.1 °F - 62.1 °F 73% 29.86 in - Calm Calm - N/A   Unknown
9:52 PM 72.0 °F - 63.0 °F 73% 29.90 in - North 6.9 mph - N/A   Unknown
10:52 PM 70.0 °F - 66.0 °F 87% 29.87 in - Calm Calm - 0.10 in   Unknown
11:52 PM 68.0 °F - 64.9 °F 90% 29.84 in - ENE 4.6 mph - N/A   Unknown